SCP
0 0 0 0 0 0 0 0 0 0 0 0 0 0 0 0 0 0 0 0 0 0 0 0 0 0 0 0 0 0 0 0 0 0 0 0 0 0 0 0 0 0 0 0
0 0 0 0 0 0 0 0 0 0 0 0 0 0 0 0 0 0 0 0 0 0 0 0 0 0 0 0 0 0 0 0 0 0 0 0 0 0 0 0 0 0 0 0
-0 -0 0 0 0 0 0 0 0 0 0 0 0 0 0 0 0 0 0 0 0 0 0 0 0 0 0 0 0 0 0 0 0 0 0 0 0 0 0 0 0 0 0 0
0 -0 0 -0 0 0 0 0 0 0 0 0 0 0 0 0 0 0 0 0 0 0 0 0 0 0 0 0 0 0 0 0 0 0 0 0 0 0 0 0 0 0 0 0
0 -0 0 0 0 0 0 0 0 0 0 0 0 0 0 0 0 0 0 0 0 0 0 0 0 0 0 0 0 0 0 0 0 0 0 0 0 0 0 0 0 0 0 0
0 -0 -0 -0 -0 0 0 0 0 0 0 0 0 0 0 0 0 0 0 0 0 0 0 0 0 0 0 0 0 0 0 0 0 0 0 0 0 0 0 0 0 0 0 0
0 -0 -0 -0 0 0 0 0 0 0 0 0 0 0 0 0 0 0 0 0 0 0 0 0 0 0 0 0 0 0 0 0 0 0 0 0 0 0 0 0 0 0 0 0
0 -0 -0 -0 0 0 0 0 0 0 0 0 0 0 0 0 0 0 0 0 0 0 0 0 0 0 0 0 0 0 0 0 0 0 0 0 0 0 0 0 0 0 0 0
0 0 0 -0 -0 0 0 0 0 0 0 0 0 0 0 0 0 0 0 0 0 0 0 0 0 0 0 0 0 0 0 0 0 0 0 0 0 0 0 0 0 0 0 0
0 0 0 -0 -0 0 0 0 0 0 0 0 0 0 0 0 0 0 0 0 0 0 0 0 0 0 0 0 0 0 0 0 0 0 0 0 0 0 0 0 0 0 0 0
0 0 0 -0 0 0 0 0 0 0 0 0 0 0 0 0 0 0 0 0 0 0 0 0 0 0 0 0 0 0 0 0 0 0 0 0 0 0 0 0 0 0 0 0
0 0 0 0 0 -0 0 0 0 0 0 0 0 0 0 0 0 0 0 0 0 0 0 0 0 0 0 0 0 0 0 0 0 0 0 0 0 0 0 0 0 0 0 0
0 0 0 0 0 0 0 0 0 0 0 0 0 0 0 0 0 0 0 0 0 0 0 0 0 0 0 0 0 0 0 0 0 0 0 0 0 0 0 0 0 0 0 0
0 0 0 0 0 -0 0 0 0 0 0 0 0 0 0 0 0 0 0 0 0 0 0 0 0 0 0 0 0 0 0 0 0 0 0 0 0 0 0 0 0 0 0 0
0 0 0 0 0 0 0 0 0 0 0 0 0 0 0 0 0 0 0 0 0 0 0 0 0 0 0 0 0 0 0 0 0 0 0 0 0 0 0 0 0 0 0 0
0 0 0 0 0 0 0 0 0 0 0 0 0 0 0 0 0 0 0 0 0 0 0 0 0 0 0 0 0 0 0 0 0 0 0 0 0 0 0 0 0 0 0 0
0 0 0 0 0 0 0 0 0 0 0 0 0 0 0 0 0 0 0 0 0 0 0 0 0 0 0 0 0 0 0 0 0 0 0 0 0 0 0 0 0 0 0 0
0 0 0 0 0 0 0 0 0 0 0 0 0 0 0 0 0 0 0 0 0 0 0 0 0 0 0 0 0 0 0 0 0 0 0 0 0 0 0 0 0 0 0 0
-0 0 -0 0 0 0 0 0 0 0 0 0 0 0 0 0 0 0 0 0 0 0 0 0 0 0 0 0 0 0 0 0 0 0 0 0 0 0 0 0 0 0 0 0
0 0 0 0 0 0 0 0 0 0 0 0 0 0 0 0 0 0 0 0 0 0 0 0 0 0 0 0 0 0 0 0 0 0 0 0 0 0 0 0 0 0 0 -0
0 0 0 0 0 0 0 0 0 0 0 0 0 0 0 0 0 0 0 0 0 0 0 0 0 0 0 0 0 0 0 0 0 0 0 0 0 0 0 0 0 0 0 0
0 0 0 0 0 0 0 0 0 0 0 0 0 0 0 0 0 0 0 0 0 0 0 0 0 0 0 0 0 0 0 0 0 0 0 0 0 0 0 0 0 0 0 0
0 0 0 0 0 0 0 0 0 0 0 0 0 0 0 0 0 0 0 0 0 0 0 0 0 0 0 0 0 0 0 0 0 0 0 0 0 0 0 0 0 0 0 0
0 0 0 0 0 0 0 0 0 0 0 0 0 0 0 0 0 0 0 0 0 0 0 0 0 0 0 0 0 0 0 0 0 0 0 0 0 0 0 0 0 0 0 0
0 0 0 0 0 0 0 0 0 0 0 0 0 0 0 0 0 0 0 0 0 0 0 0 0 0 0 0 0 0 0 0 0 0 0 0 0 0 0 0 0 0 0 0
0 0 0 0 0 0 0 0 0 0 0 0 0 0 0 0 0 0 0 0 0 0 0 0 0 0 0 0 0 0 0 0 0 0 0 0 0 0 0 0 0 0 0 0
0 0 0 0 0 0 0 0 0 0 0 0 0 0 0 0 0 0 0 0 0 0 0 0 0 0 0 0 0 0 0 0 0 0 0 0 0 0 0 0 0 0 0 0
Wind_Speed_500mb
68 67 64 70 72 65 50 31 11 42 70 16 8 21 21 11 22 21 9 6 9 15 17 13 14 20 4 17 29 18 8 8 8 4 4 6 5 7 15 10 12 2 2 3
56 79 66 65 89 82 64 22 16 52 72 24 21 11 28 21 18 14 12 8 4 6 16 10 8 10 3 15 15 21 17 6 8 3 4 3 10 11 7 3 5 15 10 8
54 64 56 63 88 92 72 28 12 20 52 44 31 32 23 24 17 20 11 11 9 10 7 3 15 11 3 11 8 5 13 4 6 16 6 9 11 13 17 9 7 11 14 9
55 57 64 60 53 100 74 38 14 22 25 32 30 37 28 34 19 10 26 8 24 15 9 4 9 9 9 4 6 6 6 8 6 1 3 3 7 10 15 16 18 14 8 15
56 49 61 43 75 103 62 29 13 9 5 46 29 37 31 44 17 28 30 17 20 20 19 16 19 16 9 7 5 7 4 5 4 1 2 5 6 11 16 10 6 18 16 29
57 53 54 55 44 97 48 42 36 29 22 34 36 29 28 43 35 9 28 30 19 19 17 17 22 12 20 16 12 8 10 11 5 6 2 5 15 15 25 12 12 16 18 22
57 54 52 53 58 70 40 65 58 19 11 28 40 43 30 35 41 18 14 34 23 20 59 48 37 37 25 15 9 5 8 9 2 5 7 13 2 4 7 23 11 26 18 19
54 53 53 52 63 61 56 44 57 32 10 22 27 30 29 33 42 17 23 19 36 74 29 8 8 5 4 3 4 10 11 9 7 9 14 5 7 10 13 14 8 8 9 7
59 55 49 49 57 57 67 42 67 41 16 20 22 43 40 16 15 10 10 27 73 45 7 6 12 12 8 11 7 12 7 1 6 6 8 14 3 5 9 5 8 10 11 5
49 47 55 47 55 55 47 48 70 56 15 14 39 28 40 35 20 10 12 21 20 30 8 6 8 8 2 15 22 14 8 6 13 12 8 8 14 9 4 11 8 21 13 8
49 48 46 49 55 56 53 65 75 66 24 30 36 35 49 26 52 17 19 16 7 8 13 9 7 7 14 9 11 17 23 17 10 8 11 16 20 10 11 10 19 22 18 19
52 49 43 48 48 53 52 40 78 67 48 23 36 29 50 51 45 45 46 8 18 15 8 5 8 6 8 12 12 4 13 12 11 17 11 3 16 4 20 26 29 24 30 25
54 48 43 44 48 48 55 56 90 58 30 18 24 18 27 41 48 53 26 15 25 14 17 9 5 7 9 11 11 9 8 7 6 6 10 9 16 19 24 31 39 37 29 23
52 49 50 53 48 42 45 49 78 69 35 8 8 24 22 29 36 40 39 42 26 35 24 8 5 5 9 10 6 11 8 23 12 5 2 11 14 19 31 43 43 34 23 17
48 44 45 53 55 58 47 42 80 68 28 9 15 24 19 24 31 36 32 33 35 20 7 5 5 8 8 3 3 8 14 12 15 12 20 9 19 34 32 43 36 28 19 6
48 42 49 57 62 56 63 20 74 73 35 20 8 11 26 27 27 29 31 34 27 18 10 5 6 8 6 8 8 7 23 20 15 10 17 14 15 35 32 33 23 21 25 22
41 51 65 74 81 60 59 30 67 66 42 17 8 5 9 40 33 20 21 28 15 9 11 6 9 7 11 6 8 9 33 29 21 21 25 17 28 19 24 16 16 17 20 32
37 48 71 75 73 60 36 28 99 63 32 15 8 4 6 21 10 9 11 10 12 8 8 8 4 12 4 5 11 18 22 27 27 30 33 32 30 28 29 33 30 32 38 40
42 76 87 76 66 31 44 91 79 43 16 10 6 10 8 17 10 12 9 9 4 3 3 5 11 4 9 11 23 35 39 37 40 44 41 35 37 43 46 44 41 40 44 44
43 89 62 18 33 104 94 43 12 8 11 10 6 8 7 10 6 6 6 6 5 5 3 8 2 5 8 15 26 27 33 36 39 42 43 40 45 48 50 47 41 44 56 68
43 9 24 104 81 41 14 10 6 2 6 9 8 9 13 7 7 6 8 6 1 6 4 7 6 7 8 22 31 30 31 34 34 32 31 30 36 39 43 49 58 63 61 59
45 85 80 40 13 14 13 4 3 4 8 7 7 12 17 14 11 8 5 6 2 4 3 3 5 6 13 14 19 28 34 33 35 32 34 36 38 42 47 49 50 52 56 58
89 24 15 6 7 11 9 11 4 7 9 19 15 9 14 11 10 11 5 7 5 10 4 6 8 12 13 14 15 17 16 16 18 19 22 26 30 35 39 40 41 47 52 54
13 9 10 6 4 5 5 7 9 9 24 45 39 13 6 8 7 4 10 2 3 5 10 14 4 23 18 16 14 11 9 7 9 12 16 19 25 26 27 32 37 44 49 50
12 13 10 8 4 10 11 19 21 16 56 47 21 15 10 4 9 4 8 5 10 11 8 6 17 21 19 14 10 9 8 10 13 16 19 18 22 27 26 28 33 38 43 47
13 18 10 3 3 4 9 20 18 34 45 40 16 7 7 4 8 7 11 13 10 5 2 14 21 17 12 7 3 4 6 10 14 18 22 22 23 27 28 25 28 29 35 43
13 8 20 16 23 13 11 13 17 48 30 6 6 8 8 7 5 4 7 8 1 10 19 17 12 6 2 4 4 7 10 11 16 19 19 20 22 27 29 29 29 33 35 41
Wind_Direction_500mb
248 234 236 218 201 194 195 183 201 177 178 181 177 207 165 175 149 202 173 158 118 154 162 156 189 187 256 166 144 174 185 108 142 194 327 309 307 226 191 189 186 213 306 239
242 236 237 226 195 191 177 182 195 177 177 185 199 205 214 203 158 186 162 133 111 143 158 137 179 179 83 159 162 151 176 180 118 109 198 200 222 203 225 128 78 189 172 210
243 238 238 223 195 192 182 165 184 183 200 210 190 177 193 197 190 190 146 127 107 125 120 8 156 139 160 171 174 182 134 121 186 195 143 126 186 194 198 182 197 182 227 284
236 240 238 238 227 189 176 179 212 189 185 203 200 187 174 184 187 190 174 171 199 166 126 85 140 129 135 101 113 112 185 172 151 307 48 158 162 173 172 192 209 209 197 221
235 228 243 235 235 186 179 156 178 185 178 188 178 199 197 183 166 160 186 177 185 172 160 184 187 152 172 148 138 139 163 135 160 164 352 332 266 208 191 210 245 254 275 277
232 233 231 240 236 183 185 184 174 177 178 181 187 194 179 198 180 215 194 170 151 172 160 126 120 92 114 126 140 136 160 144 134 234 83 24 274 199 194 190 204 209 226 249
229 230 232 233 235 220 193 192 173 158 175 188 199 196 192 174 177 143 158 169 164 135 121 101 79 68 77 101 120 153 126 120 93 173 123 218 131 146 200 209 201 220 270 280
227 229 227 227 229 230 197 192 185 181 158 190 187 164 174 182 196 180 168 175 171 142 119 100 103 42 93 53 200 179 184 160 166 188 207 317 229 178 179 187 189 192 200 249
225 225 225 221 226 221 210 204 192 190 148 206 169 182 178 146 149 128 129 144 158 148 107 125 171 173 146 182 159 192 167 159 208 159 192 214 193 136 205 186 190 170 182 50
224 225 223 220 222 227 221 203 190 192 154 172 180 185 183 184 164 107 123 141 166 158 131 132 161 171 205 163 175 169 176 184 205 180 210 272 245 209 179 188 142 139 142 96
223 221 212 209 212 210 222 207 187 192 174 164 185 182 173 159 181 169 155 124 188 140 176 167 156 147 197 150 168 177 185 177 190 184 215 233 161 110 205 124 121 133 118 111
218 214 201 200 200 217 209 213 189 185 176 160 174 172 186 188 172 167 169 186 155 154 128 167 121 142 167 151 188 191 198 194 181 197 207 76 179 189 153 159 146 138 122 115
217 204 201 203 205 206 196 183 183 173 149 129 153 155 160 182 189 192 162 171 175 151 139 144 141 168 160 168 212 139 222 178 182 145 194 194 159 151 156 153 145 133 123 110
203 206 205 198 196 203 180 178 166 164 133 111 153 164 162 171 184 186 194 189 169 168 157 118 143 156 213 183 140 193 171 154 157 256 142 119 184 174 165 152 148 146 136 119
201 203 205 190 193 197 193 191 175 167 162 131 129 145 150 162 173 183 185 185 166 155 146 101 148 123 128 73 91 192 185 159 185 205 181 175 184 183 172 174 181 179 167 157
203 215 198 190 181 185 174 152 177 173 157 115 131 130 130 137 153 155 157 166 159 176 136 119 132 160 170 160 197 244 198 184 174 164 178 165 193 176 185 189 199 222 244 257
205 200 188 185 172 179 169 171 171 155 161 107 110 96 130 129 135 119 137 146 135 136 119 143 144 143 167 138 207 214 194 189 172 161 157 153 173 190 199 206 243 259 251 280
208 191 179 177 181 178 180 171 160 152 138 98 108 75 114 149 109 101 120 113 125 94 124 119 138 127 102 219 232 208 198 207 206 205 221 231 232 230 245 274 279 279 286 291
207 189 174 160 157 148 137 152 150 161 123 109 100 133 153 145 98 108 101 115 118 105 131 132 163 132 211 206 188 191 197 205 217 219 217 230 252 263 270 277 286 290 291 293
168 127 133 114 132 132 130 123 109 56 55 70 84 113 110 132 89 81 107 85 120 150 73 117 141 243 258 181 193 202 215 225 236 248 251 251 256 258 262 269 278 287 291 291
140 103 105 121 124 118 74 85 85 119 64 48 103 117 122 91 102 115 33 115 89 142 146 192 180 247 193 198 202 198 210 222 225 227 233 252 263 266 272 275 282 284 283 283
126 121 116 104 91 79 84 60 100 70 139 153 121 130 111 108 107 97 44 95 42 175 116 143 256 223 173 171 186 206 223 230 241 250 253 256 264 273 277 277 279 282 284 285
120 101 80 103 18 74 123 147 128 132 172 158 147 112 116 110 100 73 105 122 161 119 139 218 235 140 146 148 155 166 182 201 219 236 248 256 263 271 279 284 286 285 285 285
80 87 69 64 45 84 149 137 138 127 145 140 125 94 103 114 73 116 110 71 136 107 197 221 178 163 156 153 155 170 196 222 240 256 264 276 284 280 280 289 293 291 291 289
81 61 57 54 101 68 101 102 109 98 146 134 103 74 93 62 102 57 116 126 208 213 217 189 144 148 142 146 155 184 216 236 249 261 266 270 279 287 293 295 295 295 296 298
66 56 98 122 104 63 66 74 93 131 143 138 93 111 89 99 124 140 195 151 215 210 187 130 136 132 126 130 178 253 265 270 268 272 275 279 285 288 295 301 298 305 311 312
48 44 57 69 74 81 79 97 121 150 151 138 123 101 167 110 105 202 199 190 135 132 135 137 152 154 123 28 344 308 296 285 278 278 281 285 283 290 302 310 317 321 328 324
Wind_Speed_850mb
68 67 64 70 72 65 50 31 11 42 70 16 8 21 21 11 22 21 9 6 9 15 17 13 14 20 4 17 29 18 8 8 8 4 4 6 5 7 15 10 12 2 2 3
56 79 66 65 89 82 64 22 16 52 72 24 21 11 28 21 18 14 12 8 4 6 16 10 8 10 3 15 15 21 17 6 8 3 4 3 10 11 7 3 5 15 10 8
54 64 56 63 88 92 72 28 12 20 52 44 31 32 23 24 17 20 11 11 9 10 7 3 15 11 3 11 8 5 13 4 6 16 6 9 11 13 17 9 7 11 14 9
55 57 64 60 53 100 74 38 14 22 25 32 30 37 28 34 19 10 26 8 24 15 9 4 9 9 9 4 6 6 6 8 6 1 3 3 7 10 15 16 18 14 8 15
56 49 61 43 75 103 62 29 13 9 5 46 29 37 31 44 17 28 30 17 20 20 19 16 19 16 9 7 5 7 4 5 4 1 2 5 6 11 16 10 6 18 16 29
57 53 54 55 44 97 48 42 36 29 22 34 36 29 28 43 35 9 28 30 19 19 17 17 22 12 20 16 12 8 10 11 5 6 2 5 15 15 25 12 12 16 18 22
57 54 52 53 58 70 40 65 58 19 11 28 40 43 30 35 41 18 14 34 23 20 59 48 37 37 25 15 9 5 8 9 2 5 7 13 2 4 7 23 11 26 18 19
54 53 53 52 63 61 56 44 57 32 10 22 27 30 29 33 42 17 23 19 36 74 29 8 8 5 4 3 4 10 11 9 7 9 14 5 7 10 13 14 8 8 9 7
59 55 49 49 57 57 67 42 67 41 16 20 22 43 40 16 15 10 10 27 73 45 7 6 12 12 8 11 7 12 7 1 6 6 8 14 3 5 9 5 8 10 11 5
49 47 55 47 55 55 47 48 70 56 15 14 39 28 40 35 20 10 12 21 20 30 8 6 8 8 2 15 22 14 8 6 13 12 8 8 14 9 4 11 8 21 13 8
49 48 46 49 55 56 53 65 75 66 24 30 36 35 49 26 52 17 19 16 7 8 13 9 7 7 14 9 11 17 23 17 10 8 11 16 20 10 11 10 19 22 18 19
52 49 43 48 48 53 52 40 78 67 48 23 36 29 50 51 45 45 46 8 18 15 8 5 8 6 8 12 12 4 13 12 11 17 11 3 16 4 20 26 29 24 30 25
54 48 43 44 48 48 55 56 90 58 30 18 24 18 27 41 48 53 26 15 25 14 17 9 5 7 9 11 11 9 8 7 6 6 10 9 16 19 24 31 39 37 29 23
52 49 50 53 48 42 45 49 78 69 35 8 8 24 22 29 36 40 39 42 26 35 24 8 5 5 9 10 6 11 8 23 12 5 2 11 14 19 31 43 43 34 23 17
48 44 45 53 55 58 47 42 80 68 28 9 15 24 19 24 31 36 32 33 35 20 7 5 5 8 8 3 3 8 14 12 15 12 20 9 19 34 32 43 36 28 19 6
48 42 49 57 62 56 63 20 74 73 35 20 8 11 26 27 27 29 31 34 27 18 10 5 6 8 6 8 8 7 23 20 15 10 17 14 15 35 32 33 23 21 25 22
41 51 65 74 81 60 59 30 67 66 42 17 8 5 9 40 33 20 21 28 15 9 11 6 9 7 11 6 8 9 33 29 21 21 25 17 28 19 24 16 16 17 20 32
37 48 71 75 73 60 36 28 99 63 32 15 8 4 6 21 10 9 11 10 12 8 8 8 4 12 4 5 11 18 22 27 27 30 33 32 30 28 29 33 30 32 38 40
42 76 87 76 66 31 44 91 79 43 16 10 6 10 8 17 10 12 9 9 4 3 3 5 11 4 9 11 23 35 39 37 40 44 41 35 37 43 46 44 41 40 44 44
43 89 62 18 33 104 94 43 12 8 11 10 6 8 7 10 6 6 6 6 5 5 3 8 2 5 8 15 26 27 33 36 39 42 43 40 45 48 50 47 41 44 56 68
43 9 24 104 81 41 14 10 6 2 6 9 8 9 13 7 7 6 8 6 1 6 4 7 6 7 8 22 31 30 31 34 34 32 31 30 36 39 43 49 58 63 61 59
45 85 80 40 13 14 13 4 3 4 8 7 7 12 17 14 11 8 5 6 2 4 3 3 5 6 13 14 19 28 34 33 35 32 34 36 38 42 47 49 50 52 56 58
89 24 15 6 7 11 9 11 4 7 9 19 15 9 14 11 10 11 5 7 5 10 4 6 8 12 13 14 15 17 16 16 18 19 22 26 30 35 39 40 41 47 52 54
13 9 10 6 4 5 5 7 9 9 24 45 39 13 6 8 7 4 10 2 3 5 10 14 4 23 18 16 14 11 9 7 9 12 16 19 25 26 27 32 37 44 49 50
12 13 10 8 4 10 11 19 21 16 56 47 21 15 10 4 9 4 8 5 10 11 8 6 17 21 19 14 10 9 8 10 13 16 19 18 22 27 26 28 33 38 43 47
13 18 10 3 3 4 9 20 18 34 45 40 16 7 7 4 8 7 11 13 10 5 2 14 21 17 12 7 3 4 6 10 14 18 22 22 23 27 28 25 28 29 35 43
13 8 20 16 23 13 11 13 17 48 30 6 6 8 8 7 5 4 7 8 1 10 19 17 12 6 2 4 4 7 10 11 16 19 19 20 22 27 29 29 29 33 35 41
Wind_Direction_850mb
248 234 236 218 201 194 195 183 201 177 178 181 177 207 165 175 149 202 173 158 118 154 162 156 189 187 256 166 144 174 185 108 142 194 327 309 307 226 191 189 186 213 306 239
242 236 237 226 195 191 177 182 195 177 177 185 199 205 214 203 158 186 162 133 111 143 158 137 179 179 83 159 162 151 176 180 118 109 198 200 222 203 225 128 78 189 172 210
243 238 238 223 195 192 182 165 184 183 200 210 190 177 193 197 190 190 146 127 107 125 120 8 156 139 160 171 174 182 134 121 186 195 143 126 186 194 198 182 197 182 227 284
236 240 238 238 227 189 176 179 212 189 185 203 200 187 174 184 187 190 174 171 199 166 126 85 140 129 135 101 113 112 185 172 151 307 48 158 162 173 172 192 209 209 197 221
235 228 243 235 235 186 179 156 178 185 178 188 178 199 197 183 166 160 186 177 185 172 160 184 187 152 172 148 138 139 163 135 160 164 352 332 266 208 191 210 245 254 275 277
232 233 231 240 236 183 185 184 174 177 178 181 187 194 179 198 180 215 194 170 151 172 160 126 120 92 114 126 140 136 160 144 134 234 83 24 274 199 194 190 204 209 226 249
229 230 232 233 235 220 193 192 173 158 175 188 199 196 192 174 177 143 158 169 164 135 121 101 79 68 77 101 120 153 126 120 93 173 123 218 131 146 200 209 201 220 270 280
227 229 227 227 229 230 197 192 185 181 158 190 187 164 174 182 196 180 168 175 171 142 119 100 103 42 93 53 200 179 184 160 166 188 207 317 229 178 179 187 189 192 200 249
225 225 225 221 226 221 210 204 192 190 148 206 169 182 178 146 149 128 129 144 158 148 107 125 171 173 146 182 159 192 167 159 208 159 192 214 193 136 205 186 190 170 182 50
224 225 223 220 222 227 221 203 190 192 154 172 180 185 183 184 164 107 123 141 166 158 131 132 161 171 205 163 175 169 176 184 205 180 210 272 245 209 179 188 142 139 142 96
223 221 212 209 212 210 222 207 187 192 174 164 185 182 173 159 181 169 155 124 188 140 176 167 156 147 197 150 168 177 185 177 190 184 215 233 161 110 205 124 121 133 118 111
218 214 201 200 200 217 209 213 189 185 176 160 174 172 186 188 172 167 169 186 155 154 128 167 121 142 167 151 188 191 198 194 181 197 207 76 179 189 153 159 146 138 122 115
217 204 201 203 205 206 196 183 183 173 149 129 153 155 160 182 189 192 162 171 175 151 139 144 141 168 160 168 212 139 222 178 182 145 194 194 159 151 156 153 145 133 123 110
203 206 205 198 196 203 180 178 166 164 133 111 153 164 162 171 184 186 194 189 169 168 157 118 143 156 213 183 140 193 171 154 157 256 142 119 184 174 165 152 148 146 136 119
201 203 205 190 193 197 193 191 175 167 162 131 129 145 150 162 173 183 185 185 166 155 146 101 148 123 128 73 91 192 185 159 185 205 181 175 184 183 172 174 181 179 167 157
203 215 198 190 181 185 174 152 177 173 157 115 131 130 130 137 153 155 157 166 159 176 136 119 132 160 170 160 197 244 198 184 174 164 178 165 193 176 185 189 199 222 244 257
205 200 188 185 172 179 169 171 171 155 161 107 110 96 130 129 135 119 137 146 135 136 119 143 144 143 167 138 207 214 194 189 172 161 157 153 173 190 199 206 243 259 251 280
208 191 179 177 181 178 180 171 160 152 138 98 108 75 114 149 109 101 120 113 125 94 124 119 138 127 102 219 232 208 198 207 206 205 221 231 232 230 245 274 279 279 286 291
207 189 174 160 157 148 137 152 150 161 123 109 100 133 153 145 98 108 101 115 118 105 131 132 163 132 211 206 188 191 197 205 217 219 217 230 252 263 270 277 286 290 291 293
168 127 133 114 132 132 130 123 109 56 55 70 84 113 110 132 89 81 107 85 120 150 73 117 141 243 258 181 193 202 215 225 236 248 251 251 256 258 262 269 278 287 291 291
140 103 105 121 124 118 74 85 85 119 64 48 103 117 122 91 102 115 33 115 89 142 146 192 180 247 193 198 202 198 210 222 225 227 233 252 263 266 272 275 282 284 283 283
126 121 116 104 91 79 84 60 100 70 139 153 121 130 111 108 107 97 44 95 42 175 116 143 256 223 173 171 186 206 223 230 241 250 253 256 264 273 277 277 279 282 284 285
120 101 80 103 18 74 123 147 128 132 172 158 147 112 116 110 100 73 105 122 161 119 139 218 235 140 146 148 155 166 182 201 219 236 248 256 263 271 279 284 286 285 285 285
80 87 69 64 45 84 149 137 138 127 145 140 125 94 103 114 73 116 110 71 136 107 197 221 178 163 156 153 155 170 196 222 240 256 264 276 284 280 280 289 293 291 291 289
81 61 57 54 101 68 101 102 109 98 146 134 103 74 93 62 102 57 116 126 208 213 217 189 144 148 142 146 155 184 216 236 249 261 266 270 279 287 293 295 295 295 296 298
66 56 98 122 104 63 66 74 93 131 143 138 93 111 89 99 124 140 195 151 215 210 187 130 136 132 126 130 178 253 265 270 268 272 275 279 285 288 295 301 298 305 311 312
48 44 57 69 74 81 79 97 121 150 151 138 123 101 167 110 105 202 199 190 135 132 135 137 152 154 123 28 344 308 296 285 278 278 281 285 283 290 302 310 317 321 328 324